Theta_e
353 353 360 362 361 360 360 359 358 358 358 358 358 359 359 359 359 360 360 358 357 354 353 353 354 354 354 353 354 353 352 352
352 353 358 361 361 360 360 359 359 358 358 359 359 359 359 359 359 358 357 357 356 355 353 353 353 354 353 353 352 351 351 351
351 355 356 361 361 360 359 359 359 358 358 359 359 359 360 359 358 357 356 356 356 356 354 353 353 352 351 351 351 351 350 349
354 355 356 356 358 360 359 358 358 358 358 358 358 359 359 359 357 356 355 355 356 356 356 354 353 352 351 350 350 351 351 349
354 353 353 354 355 354 355 359 358 358 358 357 358 358 358 358 357 356 353 354 354 354 355 355 353 352 351 350 350 350 350 349
351 351 351 352 353 353 353 355 358 357 358 358 357 357 354 351 352 353 352 353 354 353 353 353 353 353 352 351 351 351 350 345
345 349 348 350 350 353 355 353 352 353 353 351 351 351 348 347 347 350 351 353 354 353 352 352 352 352 351 345 342 341 334 332
345 346 348 348 349 349 352 350 352 351 350 350 349 348 346 345 346 347 346 346 347 350 346 348 345 344 343 340 338 336 333 330
342 345 347 346 346 348 351 348 349 350 348 348 349 347 343 342 340 342 341 341 340 342 343 342 341 340 338 338 338 336 334 332
336 339 343 345 347 347 346 346 348 348 348 347 346 346 344 340 339 339 339 339 339 340 341 342 341 339 338 337 336 336 336 336
337 338 338 341 341 341 345 343 345 347 347 346 345 346 345 342 339 336 337 338 338 340 342 341 341 340 339 338 339 340 341 342
338 340 339 339 339 340 341 342 342 343 344 343 344 344 345 343 339 337 336 337 339 341 341 341 341 341 339 342 343 344 344 344
339 339 340 341 340 339 339 339 339 340 340 341 340 340 343 342 339 336 335 336 340 342 342 341 341 341 341 340 339 342 344 345
337 339 340 341 340 341 341 340 339 338 339 339 339 338 339 341 341 337 336 338 341 343 343 342 341 340 338 337 337 338 342 341
334 338 339 341 340 341 343 341 343 342 341 342 339 340 341 341 343 341 341 340 344 344 342 340 339 335 335 334 332 334 337 340
334 335 336 337 339 340 338 337 339 342 344 342 343 344 344 343 345 343 344 343 344 342 342 340 337 335 333 332 331 335 333 331
331 333 335 336 338 340 338 338 341 343 346 348 346 346 347 345 344 343 343 343 343 342 339 338 335 335 333 332 334 330 326 327
329 331 334 335 336 338 335 335 339 344 346 344 347 349 347 347 346 345 343 343 343 342 340 338 337 335 334 334 334 330 321 318
331 331 330 333 332 334 332 333 333 334 335 341 344 345 349 352 350 347 346 345 344 344 342 339 339 338 335 333 330 331 324 321
Wind_Speed
11 9 13 15 14 14 17 17 17 16 15 14 14 14 13 12 10 9 9 9 8 9 10 11 11 10 8 6 4 3 2 5
10 8 9 14 14 13 15 16 16 16 14 13 13 13 12 12 11 9 8 8 7 8 8 8 8 7 7 6 4 1 3 5
13 11 7 10 9 13 15 14 14 14 14 13 11 11 11 11 10 9 7 7 7 6 6 6 5 5 4 3 2 0 3 4
11 9 8 7 8 8 9 13 14 13 12 11 11 10 10 9 9 9 7 6 6 5 5 5 4 3 3 3 2 2 3 3
13 8 8 10 7 6 6 10 10 12 12 11 9 9 8 8 7 7 6 6 5 5 5 5 4 4 5 4 5 5 6 6
10 8 6 9 8 7 6 7 8 10 10 11 9 9 7 3 5 5 6 6 6 6 6 6 6 7 6 6 6 6 8 2
10 9 6 7 8 8 6 6 5 5 3 4 5 5 4 3 3 4 5 7 7 7 7 6 7 7 6 3 3 5 2 4
13 8 7 7 8 10 8 7 4 3 3 3 5 5 4 3 2 2 2 2 2 5 3 3 2 2 4 4 4 3 4 4
10 9 9 4 4 3 6 6 7 6 5 5 5 7 5 3 3 3 3 3 3 2 4 3 2 4 4 6 6 5 5 4
11 9 8 7 6 6 5 4 6 7 6 6 6 6 5 5 5 4 4 3 3 3 3 3 3 4 5 5 5 5 5 5
10 11 11 10 8 6 5 6 5 4 7 6 6 7 9 6 5 5 4 4 4 4 3 3 4 3 4 3 5 5 6 5
9 12 14 13 13 12 10 8 6 7 6 6 6 7 7 7 6 5 4 4 5 3 4 3 4 3 4 3 5 4 3 4
13 15 15 13 14 13 13 9 8 8 7 8 7 6 9 8 9 7 5 5 3 3 3 3 2 2 3 3 3 3 2 2
7 7 12 11 16 13 12 9 10 11 9 8 7 8 9 8 8 6 3 3 4 3 4 3 2 3 2 3 4 3 4 3
8 6 4 6 5 6 1 0 3 3 3 1 5 3 7 6 7 3 2 6 4 3 4 3 4 3 2 3 4 4 4 3
7 8 9 7 5 4 2 2 2 2 3 4 7 5 6 5 5 7 6 5 5 6 7 4 2 3 3 2 1 2 3 3
7 8 9 11 9 8 6 3 3 3 2 2 3 5 7 8 7 7 8 8 7 5 7 6 4 2 3 4 3 0 3 2
10 12 12 10 9 7 6 3 1 1 1 1 3 3 4 6 9 11 12 7 6 7 7 6 5 8 4 4 7 4 2 4
15 11 10 9 7 6 7 4 4 2 2 2 1 1 2 5 8 11 12 12 11 7 6 6 6 6 4 7 2 4 1 3
Wind_Direction
126 127 151 147 145 142 134 130 128 128 129 129 127 125 123 119 113 114 121 123 129 138 142 141 139 138 140 140 130 104 47 22
120 108 144 149 145 142 136 131 129 130 130 129 129 127 127 122 119 120 123 125 136 146 153 149 149 145 146 143 143 98 15 8
127 125 128 137 137 140 137 132 131 132 134 133 133 131 130 127 127 130 134 136 146 158 163 162 158 150 149 161 169 228 345 1
94 105 112 100 122 118 132 136 136 133 134 135 138 135 137 140 141 140 142 149 157 172 174 178 177 190 199 228 266 296 311 313
103 105 129 149 114 107 120 125 133 137 136 133 137 140 147 153 155 149 162 167 176 189 197 196 214 237 250 268 285 300 305 316
104 89 91 138 131 105 110 133 123 136 129 135 145 152 160 159 174 176 179 192 197 207 210 214 230 241 255 271 288 296 300 296
126 118 124 130 148 137 119 128 114 138 135 137 148 150 147 180 198 192 200 210 218 217 221 226 242 262 282 280 284 298 293 284
146 151 156 144 161 161 146 148 147 154 151 149 160 150 157 174 222 236 229 245 233 243 235 242 257 269 271 276 274 276 277 279
138 140 157 120 143 149 150 158 160 167 165 170 187 174 164 176 198 207 218 228 233 236 236 230 223 251 252 256 259 267 273 279
127 137 154 151 167 180 173 164 175 180 181 178 189 182 174 182 200 203 219 216 234 230 232 244 238 251 260 263 267 266 271 278
144 147 153 164 170 181 191 183 182 194 190 187 188 196 190 189 196 203 214 221 234 223 223 233 251 253 268 264 274 267 257 258
164 156 160 173 173 187 194 199 187 189 198 201 200 188 193 196 199 203 212 226 236 223 225 210 239 259 277 267 269 281 274 279
173 174 170 176 174 189 196 192 192 178 197 210 199 187 196 202 193 187 216 222 220 226 226 216 202 248 249 257 279 282 302 257
197 198 181 178 187 196 193 194 211 178 206 233 199 175 175 197 206 192 197 241 215 244 236 208 191 181 220 251 258 267 274 255
195 183 212 211 210 141 178 8 256 155 152 265 265 197 184 183 196 144 165 237 225 216 247 201 213 189 207 227 266 273 263 270
185 199 212 207 208 181 126 201 241 169 166 203 225 201 166 169 171 165 202 234 223 214 241 201 160 202 241 225 291 252 260 238
214 214 225 235 230 216 204 175 174 189 206 178 195 210 181 180 148 207 205 217 213 229 230 197 162 193 234 179 216 161 269 288
209 215 217 230 225 205 172 149 105 332 53 150 211 208 207 170 175 199 205 193 207 222 237 220 191 202 226 201 211 196 153 238
221 188 200 210 187 184 176 162 169 189 204 244 180 190 214 211 206 211 202 196 203 209 225 202 197 213 212 237 215 227 113 53